CZ-2C DEB, 40290

Orbit data source: Space-Track

CZ-2C DEB, 40290 is space debris in SSO originally from a launch on Mon, 27 Oct 2014 UTC launched from the Jiuquan Satellite Launch Center, China (JSC). Debris objects in space refer to the collection of defunct objects orbiting the Earth. Examples of debris include non-operational satellites, rocket bodies, and fragments generated from explosions, collisions, or faulty payload assembly.

Loading next visibility...
Identifier
40290, 2014-066E
Orbit
SSO
Country
Flag of CNCN / PRC
Related business
Manufacturer
CALT
Mission
Spacecraft
Bus & Motor
Unknown
Mass
1 kg wet, 1 kg dry
Launch date (UTC)
2014-10-27 (11 years ago)
Launch vehicle
Unknown
Launch site
Jiuquan Satellite Launch Center, China (JSC)
Object type
Payload
Rocket body
Debris
Shape & HBR
Cone, 0.1 m
Radar Cross Section
0.025 m², Small (<0.1 m²)

Expand to show TLE details & history
Last TLE update: 20 hours ago

TLE from 20 hours ago
0 CZ-2C DEB
1 40290U 14066E   25338.53832745  .00039044  00000-0  37845-2 0  9999
2 40290  97.9216 308.5581 0051580 115.8165 244.8387 14.91551031590883
Epoch: 2025-12-04T12:55Z
TLE epoch observation values (Epoch: 2025-12-04T12:55:11.491Z)
Latitude
-0.00001°
Longitude
41.16689°
Altitude
611.578 km
Speed
7.545 km/s
True Right ascension
20h 34m 13s
True Declination
0° 00' 00"
Sunlit
Object was in daylight at epoch
Visualization orbit readout
Latitude
Unknown
Longitude
Unknown
Altitude
Unknown
Speed
Unknown
Apparent Right ascension
Unknown
Apparent Declination
Unknown
Sunlit
N/A
Visualization observer readout
Local Sidereal Time
07:20:41
Azimuth
Unknown
Elevation
Unknown
Doppler factor
Unknown
Orbital elements
Apogee altitude
626.067 km
Perigee altitude
554.183 km
Semi-major axis
6,968.262 km
Eccentricity
0.00516
Inclination
97.9216°
RAAN
308.5581°
Arg. of periapsis
115.8165°
True anomaly
244.30519°
Mean anomaly
244.8387°
Eccentric anomaly
244.5718°
Mean motion
3.73127 °/min
Orbital period
96.48 mins
BSTAR
0.0037845
Loading maneuver chart data...
Computing Atmospheric mass density...
Loading historical data...
Loading historical data...
Loading historical data...
Loading historical data...
Loading historical data...
Loading historical data...
Loading historical data...
Other satellites on launch #66 in the year 2014 (2014-10-27 UTC)

Documentation

Showing up to 5 results
|